Temperature
13 12 12 12 12 12 12 11 11 11 12 12 12 12 12 12 12 12 13 13 13 13 13 13 14 14 14 14 14 14 15 15 15 15 15 16 16 16 16 16 16 16 16
13 12 12 12 12 12 12 11 11 11 11 12 12 12 12 12 12 12 12 13 13 13 13 13 13 13 14 14 14 14 14 15 15 15 15 15 15 16 15 15 16 15 16
13 12 12 12 12 12 12 11 11 11 11 11 12 12 12 12 12 12 12 12 13 13 13 13 13 13 13 14 14 14 14 14 14 14 15 15 15 15 15 15 15 15 15
13 13 12 12 12 12 12 11 11 11 11 11 11 11 11 11 12 12 12 12 12 13 13 13 13 13 13 13 13 14 14 14 14 14 14 14 15 15 14 14 14 15 15
14 13 13 12 12 12 11 11 11 11 11 11 11 11 11 11 12 12 12 12 12 12 12 12 13 13 13 13 13 13 13 14 14 14 14 14 14 14 14 14 14 14 14
14 13 13 12 12 12 12 11 11 11 11 11 11 11 11 11 11 12 12 12 12 12 12 12 12 13 13 13 13 13 13 13 13 14 14 14 14 14 14 14 14 14 13
14 14 13 13 12 12 12 11 11 11 11 11 11 11 11 11 12 12 12 12 12 12 12 12 12 12 12 12 13 13 13 13 13 13 14 14 14 14 14 14 14 14 14
15 14 13 13 12 12 12 12 11 11 11 11 11 11 11 11 11 12 12 12 12 12 12 12 12 12 12 12 12 12 13 13 13 13 13 14 14 14 14 14 14 13 13
15 14 14 13 13 12 12 12 12 12 11 11 11 11 11 11 11 12 12 12 12 12 12 12 12 12 12 12 12 12 12 12 13 13 13 13 13 13 13 13 13 13 12
15 15 14 14 13 13 12 12 12 12 12 12 11 11 12 12 12 12 12 12 12 12 12 11 12 12 12 12 12 12 12 12 12 12 13 13 13 13 13 13 13 13 12
15 15 14 14 14 13 13 13 12 12 12 12 12 12 12 12 12 12 12 12 12 11 11 11 11 12 12 12 12 12 12 12 12 12 12 12 12 12 12 12 12 12 12
15 15 14 14 14 14 13 13 13 13 13 12 12 12 12 12 12 12 12 12 12 11 11 11 11 12 12 12 12 12 12 12 12 12 12 12 12 12 12 12 12 12 12
15 15 15 14 14 14 14 14 13 13 13 13 13 12 12 12 12 12 12 12 12 11 11 11 12 12 12 12 12 12 12 12 12 12 12 12 12 12 12 12 12 12 12
15 15 15 15 15 15 14 14 14 14 13 13 13 13 13 12 12 12 12 12 12 12 12 12 12 12 12 12 12 12 12 12 12 12 12 12 11 11 11 12 11 11 11
15 15 15 15 15 15 15 14 14 14 14 14 14 13 13 13 13 12 12 12 12 12 12 12 12 12 12 11 11 11 11 11 11 11 11 11 11 11 11 11 11 11 11
15 15 15 15 15 15 15 15 14 14 14 14 14 14 14 14 13 13 13 12 12 12 12 12 12 12 11 11 11 11 11 11 11 11 11 11 11 11 11 11 11 11 11
14 14 14 14 15 15 14 14 14 14 14 14 14 14 14 14 14 13 13 13 12 12 12 12 12 12 12 12 11 11 11 11 11 11 11 11 11 11 11 11 11 11 10
13 13 13 14 14 14 14 14 14 14 14 14 14 14 14 14 14 13 13 13 13 13 12 12 12 12 12 12 12 12 12 11 11 11 11 11 11 11 11 11 11 11 11
12 12 12 13 13 13 13 13 13 13 14 14 14 14 14 14 14 14 13 13 13 13 13 12 12 12 12 12 12 12 12 12 11 11 11 11 11 11 11 11 11 11 10
11 11 11 11 12 12 12 12 12 13 13 13 13 13 13 14 14 13 13 13 13 13 13 13 12 12 12 12 12 12 12 12 12 11 11 11 11 11 11 11 11 10 10
10 10 10 10 10 11 11 11 11 11 12 12 12 12 12 13 13 13 13 12 12 12 12 12 12 12 12 12 12 12 11 11 11 11 11 11 11 11 11 11 11 10 10
9 9 9 9 9 9 9 10 10 10 10 10 10 11 11 11 11 11 12 12 12 11 11 12 12 12 12 12 12 12 12 11 11 11 11 11 11 11 11 11 10 10 10
8 8 8 8 8 8 8 8 8 8 8 8 9 9 9 9 10 10 10 10 10 11 11 11 11 11 11 11 11 11 11 11 11 11 11 11 11 11 11 10 10 10 10
7 7 7 7 7 7 7 7 7 7 7 7 7 7 7 8 8 8 8 9 9 9 10 10 10 10 10 10 11 11 11 11 11 11 11 11 11 11 11 10 10 10 10
6 6 6 6 6 6 6 6 5 5 5 5 5 5 6 6 6 6 7 7 7 8 8 9 9 9 9 9 10 10 10 10 10 10 10 10 10 10 10 10 10 10 10
6 6 6 5 5 5 5 5 5 5 5 4 4 4 4 4 4 5 5 5 6 6 7 7 7 7 8 8 8 9 9 9 9 10 10 10 10 10 10 10 10 10 10
Wind_Speed
4 5 5 5 5 5 5 5 6 6 7 7 7 6 6 6 5 4 4 3 3 3 3 3 4 4 3 4 4 4 5 5 5 4 2 3 3 3 4 5 8 11 14
3 4 4 4 5 6 6 6 7 7 7 7 7 7 7 7 6 6 5 4 3 3 3 3 4 3 3 3 4 5 5 6 5 5 4 3 4 4 4 5 4 8 9
1 2 4 5 5 6 6 6 7 7 7 7 7 8 7 7 7 7 7 6 4 3 3 3 3 3 3 3 4 4 5 5 5 4 4 3 3 4 4 3 3 3 6
1 1 3 4 5 5 5 5 6 7 7 7 7 7 7 7 8 9 9 7 5 4 3 3 3 3 3 3 3 3 4 4 4 4 4 3 3 4 4 4 3 3 4
1 1 2 4 5 5 5 5 6 7 7 6 7 7 7 6 8 10 9 8 7 5 4 4 3 3 3 2 2 2 1 2 3 4 4 4 4 4 5 4 4 3 2
1 1 2 1 3 4 5 5 5 5 5 5 5 6 6 6 10 13 12 8 7 5 4 3 3 3 5 4 2 2 1 2 3 4 4 5 5 5 4 5 5 4 2
0 1 1 1 2 3 5 5 5 5 5 5 5 5 5 6 10 13 15 9 7 5 5 4 4 4 5 4 4 2 1 2 4 3 3 4 5 5 6 6 6 5 4
1 0 1 1 1 2 3 4 4 4 5 5 5 4 4 5 8 11 15 9 6 4 4 4 4 4 6 6 4 2 1 1 2 3 2 2 3 3 4 6 6 5 3
2 1 1 1 1 2 3 3 3 3 4 4 4 4 4 3 6 9 12 7 5 5 5 5 4 4 8 9 5 3 2 1 1 3 3 4 4 5 5 5 6 6 4
3 1 1 0 1 2 3 3 3 4 4 4 4 4 3 2 2 6 9 5 5 5 4 3 6 6 8 8 5 4 3 2 1 2 2 3 3 4 5 5 6 6 4
3 1 2 2 3 4 3 4 5 4 4 5 6 5 3 2 1 1 4 3 5 6 4 3 3 6 8 8 6 3 3 3 1 1 2 2 3 3 3 3 4 5 5
2 2 4 5 5 4 4 5 5 5 6 6 5 4 3 2 3 2 2 3 4 4 4 3 3 6 7 7 5 4 5 4 1 0 1 2 2 2 2 2 3 3 3
3 5 6 6 6 6 6 6 5 5 5 5 4 4 3 2 3 5 4 5 5 3 3 5 6 6 6 5 4 5 4 2 1 0 1 1 1 2 2 2 2 2 3
5 6 6 6 6 5 5 5 4 4 4 4 4 4 4 3 1 2 1 3 4 4 4 5 7 7 5 5 4 4 3 2 1 1 2 2 2 2 2 2 2 2 2
6 6 6 6 5 4 4 5 6 5 5 5 5 4 4 3 1 1 0 1 2 3 5 4 4 4 4 4 3 3 2 2 2 2 2 2 3 3 3 3 3 2 2
6 6 4 3 3 4 5 5 9 10 11 12 12 9 6 7 7 6 5 4 4 4 4 4 5 5 4 4 4 3 3 3 3 3 3 3 4 4 4 3 3 4 4
6 6 5 4 4 4 4 5 6 7 12 13 13 14 13 12 10 9 8 6 7 5 4 6 6 6 5 5 4 4 4 4 4 4 4 4 4 4 4 4 4 4 4
7 7 6 5 5 5 5 5 5 5 5 5 10 16 16 16 14 12 9 4 5 5 6 7 7 7 6 5 5 4 4 3 3 4 4 4 4 5 5 5 5 5 5
6 5 6 6 6 6 6 6 6 6 6 5 5 6 12 12 11 10 8 6 7 7 7 8 8 7 6 6 6 5 5 5 5 4 4 5 5 5 5 5 6 8 6
6 9 8 6 6 6 6 6 6 6 6 5 5 4 1 2 3 5 7 8 9 9 8 8 7 7 7 6 6 6 6 6 6 6 6 5 5 5 6 7 6 6 6
6 8 10 7 6 6 7 7 8 8 8 7 7 8 8 2 3 5 4 6 8 9 9 8 8 7 7 7 6 7 8 7 7 7 7 7 7 6 6 6 6 7 6
6 6 6 7 7 7 8 7 7 7 9 9 9 10 13 8 6 6 5 5 4 5 5 5 6 6 6 7 7 8 8 8 8 7 7 7 7 7 7 6 6 6 6
6 7 7 7 7 9 9 8 8 9 9 9 10 10 10 9 9 9 9 9 8 7 6 6 5 5 5 5 5 7 8 8 8 8 8 8 8 8 8 8 9 8 8
6 7 7 7 7 7 7 8 8 9 9 10 10 10 10 10 10 11 11 11 11 10 9 8 7 8 10 8 5 5 5 6 7 7 10 9 9 8 8 8 9 10 9
5 5 6 6 6 6 7 7 7 8 8 8 9 9 9 10 10 11 11 11 13 12 13 12 9 10 12 12 10 9 10 11 10 7 7 8 10 10 9 9 8 9 9
4 4 4 4 5 5 5 6 6 7 7 7 7 8 8 8 9 9 10 10 12 12 13 12 14 16 16 12 13 15 15 14 13 12 8 7 9 9 10 9 11 10 10
Wind_Direction
4 358 354 348 340 336 349 352 346 342 344 343 345 349 354 352 347 338 331 329 320 307 298 289 282 259 238 227 221 214 210 205 217 224 199 188 184 183 189 195 174 176 189
18 350 338 339 348 353 357 1 353 348 347 346 353 1 4 2 352 349 347 344 323 312 307 299 290 285 259 236 225 217 210 207 201 214 208 195 198 192 196 199 186 182 175
50 338 339 352 360 356 359 0 348 350 351 350 2 4 6 6 2 0 353 341 328 314 308 303 301 305 279 254 235 223 214 211 197 199 206 195 196 188 187 195 180 162 165
134 347 356 353 359 357 0 352 347 353 351 356 5 6 7 7 8 2 352 342 337 334 336 338 335 332 311 295 267 247 221 208 197 197 202 192 189 180 173 177 179 170 166
106 45 28 0 360 358 349 350 359 354 351 359 3 5 3 5 14 1 347 344 343 348 359 8 13 15 9 343 314 312 282 219 201 198 199 191 186 173 182 176 175 157 159
182 125 90 2 356 348 341 351 353 337 339 357 357 3 0 7 1 1 357 341 336 342 351 353 353 15 17 5 330 289 271 232 216 209 205 196 196 190 177 171 165 161 179
164 123 113 35 0 344 344 347 337 336 355 350 347 353 356 360 359 357 352 338 330 344 354 351 1 19 14 359 338 309 279 267 242 222 211 205 186 185 179 178 175 172 176
116 262 175 167 290 323 326 322 322 341 343 333 332 338 340 359 4 357 349 336 332 348 359 0 11 23 14 0 338 337 347 329 270 218 202 203 179 164 174 178 168 151 123
160 260 247 177 197 295 305 305 314 321 314 313 319 323 324 348 9 3 355 328 334 349 2 13 22 27 10 3 355 355 7 1 46 100 129 138 140 149 151 144 152 153 160
158 217 275 171 216 267 289 300 298 289 286 294 297 296 304 318 15 7 359 335 342 344 348 27 47 27 6 4 357 358 6 360 53 106 118 138 147 152 158 163 167 166 154
108 64 300 273 248 236 245 271 284 286 290 285 278 262 246 247 183 7 359 350 338 331 337 2 29 14 2 356 353 357 343 333 339 116 131 140 143 151 158 159 171 174 168
133 222 255 259 261 258 233 246 261 271 279 279 277 278 246 201 183 204 283 310 318 319 330 352 4 352 345 341 344 336 332 335 325 136 124 131 139 147 153 156 173 185 174
214 228 240 248 242 235 236 244 252 256 261 277 285 286 278 221 191 208 242 282 303 308 313 321 313 313 322 314 303 307 314 303 298 161 151 150 147 141 132 128 118 119 109
244 236 236 243 245 238 224 227 240 253 265 278 289 293 291 277 231 176 238 276 294 303 306 300 295 289 286 288 287 281 265 259 225 203 181 163 141 129 140 144 138 133 119
275 258 247 243 237 239 240 234 236 237 229 234 248 264 285 288 226 171 178 341 353 342 325 302 281 270 260 255 252 243 233 222 219 201 180 171 166 165 173 168 155 152 153
310 309 303 295 270 244 245 256 241 235 239 233 232 235 250 245 218 217 226 246 274 305 315 288 283 272 263 259 256 250 238 228 218 205 200 190 184 183 179 172 167 169 169
320 315 312 308 305 294 279 268 275 262 244 245 245 243 240 246 240 236 239 252 269 274 261 262 266 264 255 250 248 242 237 229 214 206 204 201 191 186 180 180 183 185 187
331 332 334 321 312 302 294 288 281 280 278 263 246 240 241 242 242 240 235 240 264 238 235 247 255 258 251 244 241 240 239 232 218 214 210 206 197 191 192 192 191 192 190
339 343 339 329 317 307 299 294 290 287 282 277 275 249 236 239 241 238 210 219 244 250 246 243 243 246 246 241 236 232 228 224 220 214 214 212 204 198 202 200 196 197 193
340 346 343 327 324 330 330 325 321 317 313 310 306 308 276 172 216 221 212 225 238 247 250 252 249 244 239 237 234 230 229 226 220 217 215 213 210 203 205 204 197 191 194
346 348 350 349 350 354 347 345 349 351 350 347 342 342 349 301 258 257 242 229 235 242 248 249 249 246 237 231 230 230 230 231 225 217 214 211 209 208 206 202 201 196 189
351 356 356 356 358 1 356 355 355 356 357 356 353 356 357 357 350 344 334 322 304 281 270 266 258 249 239 232 226 226 231 233 231 224 218 213 208 207 206 204 203 199 193
358 1 359 1 4 1 1 1 2 2 2 1 0 1 2 1 358 355 351 349 344 339 335 328 310 299 286 264 243 231 232 235 232 224 220 215 211 208 206 207 207 204 202
360 2 1 3 5 4 1 2 3 4 3 2 3 3 1 359 357 357 356 353 352 348 346 341 333 328 325 322 306 278 265 263 249 234 223 220 216 212 207 207 208 206 205
358 360 2 3 3 0 358 358 359 0 359 360 0 359 356 355 354 354 355 355 352 348 346 345 342 336 329 324 327 328 315 294 279 269 242 225 221 215 210 209 208 208 206
347 354 357 357 356 353 350 349 351 352 351 352 352 350 347 347 347 347 347 347 346 343 342 340 338 338 334 332 329 326 321 315 301 280 263 244 228 222 213 212 209 208 207
Height
1512 1510 1508 1506 1504 1502 1499 1497 1494 1492 1490 1488 1486 1484 1482 1481 1479 1478 1477 1477 1476 1476 1476 1476 1476 1476 1477 1478 1479 1481 1483 1484 1486 1488 1490 1492 1494 1496 1499 1501 1505 1508 1511
1512 1510 1509 1506 1504 1502 1500 1497 1495 1492 1490 1488 1486 1484 1482 1480 1479 1477 1476 1475 1475 1474 1474 1473 1473 1473 1473 1474 1475 1476 1478 1480 1482 1483 1486 1488 1490 1492 1494 1497 1500 1503 1505
1512 1510 1509 1507 1505 1502 1500 1498 1495 1493 1491 1488 1486 1484 1482 1480 1478 1477 1475 1474 1473 1473 1472 1471 1471 1471 1471 1471 1472 1473 1474 1476 1478 1480 1482 1484 1486 1488 1490 1493 1496 1498 1501
1512 1511 1509 1507 1505 1503 1500 1498 1496 1493 1491 1489 1487 1484 1482 1480 1478 1476 1475 1473 1473 1472 1471 1470 1469 1468 1468 1468 1469 1470 1471 1472 1474 1476 1478 1480 1482 1484 1486 1488 1491 1493 1496
1512 1511 1509 1507 1505 1503 1501 1498 1496 1494 1492 1489 1487 1485 1483 1481 1479 1477 1475 1473 1472 1471 1470 1469 1468 1467 1467 1467 1467 1467 1468 1469 1471 1472 1474 1476 1478 1480 1482 1484 1486 1489 1492
1512 1510 1509 1507 1505 1503 1501 1499 1496 1494 1492 1490 1488 1485 1483 1481 1480 1478 1476 1474 1472 1471 1470 1469 1468 1467 1466 1465 1465 1465 1466 1466 1468 1469 1471 1472 1474 1476 1478 1480 1482 1485 1487
1512 1510 1508 1507 1505 1503 1501 1499 1496 1494 1492 1490 1488 1486 1484 1482 1480 1478 1476 1474 1473 1471 1470 1469 1468 1467 1466 1465 1464 1464 1464 1464 1465 1467 1468 1469 1471 1472 1475 1476 1478 1481 1483
1511 1510 1508 1506 1504 1502 1500 1498 1496 1494 1492 1490 1488 1486 1484 1482 1480 1478 1476 1475 1473 1472 1470 1469 1468 1467 1465 1464 1464 1463 1463 1463 1463 1464 1465 1466 1468 1470 1471 1473 1475 1478 1481
1510 1509 1508 1506 1504 1502 1500 1498 1497 1494 1492 1490 1488 1486 1484 1482 1480 1479 1477 1475 1473 1472 1471 1469 1468 1466 1465 1464 1463 1462 1462 1462 1461 1462 1462 1464 1465 1467 1468 1470 1472 1474 1476
1508 1508 1507 1505 1503 1502 1500 1498 1496 1494 1492 1490 1488 1486 1484 1482 1480 1479 1477 1475 1473 1472 1470 1469 1468 1466 1465 1464 1463 1462 1461 1461 1460 1460 1461 1462 1464 1465 1466 1468 1469 1471 1473
1507 1506 1505 1504 1502 1501 1499 1497 1495 1494 1492 1490 1488 1486 1484 1482 1480 1479 1477 1475 1473 1471 1470 1469 1467 1466 1465 1464 1463 1462 1461 1461 1460 1460 1460 1461 1462 1463 1465 1466 1467 1469 1471
1505 1504 1503 1502 1501 1500 1498 1496 1494 1493 1491 1489 1488 1486 1484 1482 1480 1478 1477 1475 1473 1471 1470 1468 1467 1466 1464 1463 1462 1462 1461 1461 1460 1460 1460 1461 1461 1462 1463 1464 1465 1467 1468
1503 1502 1501 1500 1498 1497 1496 1494 1493 1491 1490 1488 1487 1485 1484 1482 1480 1478 1476 1474 1472 1471 1469 1468 1467 1465 1464 1463 1462 1462 1461 1461 1460 1460 1460 1460 1460 1461 1462 1463 1463 1464 1465
1501 1500 1498 1497 1496 1495 1494 1492 1491 1489 1488 1487 1485 1483 1482 1480 1478 1476 1474 1473 1471 1469 1468 1467 1466 1465 1463 1462 1462 1461 1461 1460 1460 1460 1459 1459 1460 1460 1460 1461 1462 1462 1463
1498 1497 1496 1495 1493 1492 1491 1490 1488 1487 1486 1484 1482 1481 1479 1477 1476 1475 1473 1471 1469 1468 1466 1465 1464 1463 1462 1461 1461 1460 1460 1459 1459 1459 1458 1458 1459 1459 1459 1460 1460 1461 1462
1495 1494 1493 1492 1491 1489 1487 1486 1484 1483 1482 1481 1479 1478 1476 1475 1473 1472 1470 1469 1467 1466 1464 1463 1462 1461 1460 1460 1459 1459 1458 1458 1457 1457 1457 1457 1457 1457 1457 1458 1459 1459 1460
1492 1491 1490 1488 1487 1485 1484 1482 1481 1480 1478 1477 1476 1474 1473 1471 1470 1468 1467 1465 1464 1463 1461 1460 1459 1458 1458 1457 1457 1456 1456 1455 1455 1455 1455 1455 1455 1456 1456 1456 1457 1458 1459
1488 1487 1486 1484 1483 1481 1480 1479 1477 1476 1474 1472 1472 1470 1469 1467 1466 1465 1463 1462 1460 1459 1458 1457 1456 1455 1455 1454 1454 1453 1453 1453 1452 1452 1452 1452 1453 1453 1454 1454 1455 1456 1457
1485 1484 1482 1481 1479 1478 1476 1475 1474 1472 1471 1469 1468 1466 1464 1463 1462 1461 1459 1457 1456 1455 1454 1453 1452 1451 1451 1450 1450 1450 1449 1449 1449 1449 1448 1449 1449 1450 1450 1451 1452 1453 1454
1483 1482 1480 1478 1476 1475 1473 1472 1470 1469 1467 1466 1464 1463 1460 1458 1457 1456 1455 1453 1452 1450 1449 1448 1448 1447 1446 1446 1446 1445 1445 1445 1444 1444 1444 1444 1445 1446 1446 1447 1448 1449 1450
1481 1480 1478 1477 1475 1473 1471 1469 1468 1466 1464 1462 1461 1459 1457 1455 1453 1452 1451 1449 1447 1446 1445 1444 1443 1442 1441 1441 1440 1440 1440 1439 1439 1439 1439 1439 1440 1440 1441 1442 1443 1444 1445
1480 1479 1477 1476 1474 1472 1470 1468 1466 1464 1462 1460 1457 1455 1453 1451 1450 1448 1447 1445 1443 1442 1440 1439 1437 1436 1436 1435 1435 1434 1434 1433 1434 1434 1434 1434 1434 1435 1436 1436 1437 1439 1440
1480 1478 1477 1475 1473 1471 1469 1467 1465 1462 1460 1458 1456 1453 1451 1449 1446 1444 1442 1440 1438 1436 1434 1433 1431 1430 1430 1429 1428 1428 1427 1427 1427 1427 1428 1428 1428 1429 1429 1430 1431 1433 1434
1479 1478 1476 1475 1473 1470 1468 1466 1464 1462 1459 1457 1454 1452 1449 1446 1444 1441 1438 1435 1433 1431 1429 1427 1425 1424 1422 1421 1421 1420 1419 1419 1420 1420 1420 1421 1421 1422 1422 1423 1424 1426 1427
1479 1478 1476 1474 1472 1470 1468 1466 1464 1461 1459 1456 1453 1450 1447 1444 1441 1438 1435 1432 1429 1426 1423 1421 1419 1417 1415 1413 1412 1411 1410 1410 1411 1411 1411 1412 1412 1413 1414 1415 1417 1418 1420
1479 1477 1475 1474 1472 1470 1468 1465 1463 1460 1458 1455 1452 1449 1446 1443 1439 1436 1432 1429 1425 1421 1418 1415 1413 1410 1407 1405 1403 1402 1401 1400 1400 1400 1401 1402 1403 1404 1405 1406 1408 1410 1412